[Date Prev][Date Next][Thread Prev][Thread Next] - [Date Index][Thread Index][Author Index]
2 Line ISS Keps 7-5
- Subject: [sarex] 2 Line ISS Keps 7-5
- From: "Dave Larsen PhD" <doc@xxxxxxxxxxx>
- Date: Mon, 4 Jul 2005 18:38:32 -0700
ISS
1 25544U 98067A 05185.96405692 .00010765 00000-0 83378-4 0 8395
2 25544 051.6442 169.7847 0001503 302.8416 105.5396 15.72477943378487
----
Via the sarex mailing list at AMSAT.ORG courtesy of AMSAT-NA.
To unsubscribe, send "unsubscribe sarex" to Majordomo@amsat.org
AMSAT Home